Temp
-14 -13 -12 -13 -12 -12 -12 -12 -12 -12 -12 -11 -11 -11 -11 -11 -11 -11 -11 -12 -12 -12 -12 -12 -12 -13 -13 -13 -13 -12 -12 -11 -11 -12 -13 -13 -12 -12 -12 -11 -12 -12 -11
-13 -13 -13 -13 -12 -11 -12 -12 -13 -13 -12 -12 -12 -12 -12 -12 -12 -12 -12 -12 -12 -12 -12 -13 -13 -14 -14 -14 -13 -13 -12 -12 -12 -13 -13 -13 -12 -11 -12 -12 -12 -12 -11
-14 -14 -14 -14 -14 -14 -13 -14 -14 -14 -14 -14 -13 -13 -14 -13 -13 -13 -13 -13 -13 -13 -13 -13 -14 -14 -14 -14 -14 -13 -13 -13 -13 -13 -13 -12 -12 -11 -12 -12 -12 -12 -11
-14 -14 -14 -14 -14 -14 -14 -14 -15 -15 -15 -16 -15 -14 -14 -14 -14 -14 -14 -14 -14 -14 -14 -14 -14 -14 -15 -14 -14 -14 -13 -13 -13 -13 -13 -12 -12 -11 -11 -11 -13 -12 -12
-15 -15 -15 -15 -15 -15 -15 -15 -16 -16 -16 -17 -17 -16 -15 -15 -15 -15 -15 -14 -14 -14 -14 -14 -14 -15 -15 -15 -14 -13 -14 -13 -14 -13 -12 -12 -13 -12 -11 -11 -12 -12 -13
-15 -15 -15 -15 -15 -15 -15 -15 -15 -17 -17 -18 -17 -17 -18 -16 -17 -17 -17 -16 -15 -15 -15 -15 -15 -15 -14 -14 -14 -14 -14 -14 -14 -15 -15 -15 -14 -13 -12 -13 -13 -13 -13
-15 -15 -15 -15 -16 -16 -16 -17 -17 -17 -18 -18 -18 -17 -18 -18 -18 -18 -17 -17 -17 -16 -16 -15 -15 -15 -15 -15 -15 -16 -16 -15 -16 -15 -14 -14 -14 -13 -14 -13 -14 -14 -14
-15 -15 -15 -15 -15 -16 -16 -17 -18 -18 -19 -19 -19 -18 -18 -19 -19 -19 -18 -17 -17 -16 -16 -15 -15 -15 -15 -16 -16 -17 -17 -17 -17 -16 -16 -16 -15 -15 -15 -14 -14 -14 -14
-15 -15 -15 -15 -16 -16 -16 -17 -18 -19 -20 -19 -19 -18 -18 -18 -19 -19 -18 -18 -17 -16 -16 -16 -16 -15 -15 -16 -18 -17 -17 -17 -17 -17 -16 -15 -15 -15 -15 -16 -15 -15 -15
-15 -15 -15 -15 -15 -16 -16 -16 -17 -18 -19 -19 -19 -18 -18 -18 -19 -19 -18 -18 -17 -17 -17 -16 -16 -16 -16 -17 -17 -17 -17 -17 -16 -16 -16 -16 -16 -16 -16 -16 -16 -16 -15
-14 -14 -14 -14 -14 -15 -16 -16 -16 -17 -17 -17 -17 -17 -17 -18 -18 -18 -18 -18 -17 -17 -16 -16 -16 -17 -17 -17 -17 -17 -17 -17 -17 -16 -16 -16 -16 -17 -16 -16 -16 -15 -15
-14 -14 -14 -14 -14 -15 -15 -16 -16 -16 -16 -17 -17 -17 -17 -17 -18 -18 -17 -18 -18 -18 -17 -16 -16 -17 -17 -17 -17 -17 -17 -17 -17 -17 -17 -16 -16 -16 -17 -16 -16 -15 -15
-15 -15 -14 -14 -14 -15 -15 -16 -16 -16 -16 -16 -16 -17 -17 -17 -17 -17 -17 -18 -18 -18 -17 -17 -17 -18 -16 -17 -17 -17 -16 -17 -18 -17 -17 -17 -17 -17 -17 -16 -16 -15 -15
-14 -15 -15 -15 -15 -15 -15 -15 -16 -16 -16 -16 -16 -16 -17 -17 -17 -17 -17 -18 -18 -18 -18 -17 -17 -16 -17 -17 -17 -17 -17 -17 -18 -18 -18 -17 -17 -17 -16 -16 -16 -16 -15
-15 -15 -15 -15 -15 -15 -16 -16 -16 -16 -16 -16 -16 -16 -16 -17 -17 -17 -17 -18 -18 -18 -17 -18 -17 -17 -17 -17 -17 -17 -17 -17 -18 -18 -18 -17 -17 -17 -16 -16 -16 -15 -15
-14 -15 -15 -14 -16 -17 -17 -16 -16 -16 -16 -17 -16 -16 -16 -17 -17 -17 -17 -17 -18 -18 -18 -18 -17 -17 -17 -17 -17 -17 -18 -17 -18 -18 -17 -17 -17 -17 -16 -16 -15 -15 -15
-15 -16 -15 -15 -16 -16 -17 -17 -17 -17 -17 -17 -17 -17 -17 -17 -17 -17 -17 -17 -17 -18 -17 -17 -17 -18 -17 -17 -17 -18 -18 -18 -17 -17 -17 -17 -17 -17 -16 -16 -15 -15 -14
-15 -15 -15 -16 -16 -16 -16 -16 -17 -17 -17 -17 -17 -17 -17 -17 -17 -17 -18 -17 -17 -17 -17 -17 -18 -18 -18 -18 -18 -18 -18 -17 -17 -17 -17 -17 -16 -17 -16 -15 -15 -15 -14
-15 -15 -16 -16 -16 -16 -17 -17 -17 -17 -17 -17 -17 -17 -17 -17 -17 -16 -16 -17 -17 -18 -17 -17 -18 -18 -18 -18 -18 -18 -18 -18 -18 -17 -16 -16 -16 -16 -16 -15 -15 -14 -14
-15 -16 -15 -15 -16 -17 -17 -18 -18 -18 -17 -17 -17 -17 -17 -16 -16 -16 -16 -17 -17 -17 -18 -17 -18 -18 -18 -18 -18 -18 -18 -18 -17 -17 -17 -16 -16 -16 -16 -15 -15 -14 -14
-15 -16 -16 -16 -15 -16 -17 -17 -17 -18 -18 -17 -17 -17 -17 -17 -16 -16 -17 -17 -17 -17 -17 -18 -18 -18 -18 -18 -18 -18 -18 -18 -17 -17 -17 -17 -16 -16 -15 -15 -15 -14 -13
-15 -16 -16 -16 -16 -16 -17 -17 -18 -18 -18 -18 -17 -17 -17 -17 -16 -16 -17 -17 -17 -17 -17 -18 -18 -18 -18 -18 -18 -18 -18 -17 -18 -18 -17 -17 -16 -16 -16 -15 -15 -14 -14
-15 -15 -15 -16 -16 -16 -16 -17 -17 -18 -18 -18 -17 -17 -17 -17 -17 -16 -16 -16 -16 -17 -17 -17 -18 -18 -18 -18 -18 -18 -18 -17 -17 -17 -17 -16 -16 -16 -15 -15 -15 -15 -14
-15 -15 -16 -15 -16 -16 -16 -16 -17 -18 -17 -17 -17 -16 -17 -17 -17 -16 -16 -16 -16 -17 -18 -18 -17 -18 -18 -18 -18 -17 -17 -17 -17 -17 -17 -17 -17 -16 -15 -15 -15 -13 -13
-15 -15 -15 -15 -15 -16 -15 -15 -16 -16 -16 -16 -16 -16 -16 -16 -16 -16 -16 -16 -16 -16 -18 -18 -17 -17 -18 -18 -18 -17 -17 -17 -17 -17 -17 -17 -16 -16 -16 -16 -13 -13 -13
-14 -14 -15 -14 -15 -15 -15 -15 -15 -16 -16 -16 -16 -16 -16 -16 -16 -17 -16 -16 -15 -15 -16 -17 -17 -17 -17 -17 -18 -18 -17 -17 -17 -17 -16 -16 -16 -16 -16 -13 -13 -13 -13
Height
5699 5699 5697 5696 5694 5693 5691 5688 5683 5679 5675 5674 5674 5675 5676 5676 5677 5678 5678 5678 5681 5683 5686 5688 5692 5695 5699 5702 5702 5702 5704 5702 5701 5698 5712 5716 5723 5725 5728 5730 5730 5735 5736
5686 5682 5677 5675 5672 5669 5670 5668 5664 5662 5657 5654 5653 5653 5655 5657 5659 5660 5661 5662 5664 5667 5671 5674 5678 5680 5684 5686 5690 5693 5693 5694 5697 5699 5704 5709 5715 5715 5720 5722 5723 5726 5726
5663 5663 5660 5656 5651 5647 5645 5643 5641 5639 5638 5636 5634 5632 5632 5636 5639 5642 5644 5645 5649 5651 5654 5658 5663 5666 5671 5673 5676 5682 5683 5684 5688 5694 5697 5702 5705 5706 5711 5714 5715 5717 5718
5648 5644 5641 5638 5635 5631 5626 5624 5621 5617 5614 5615 5615 5615 5614 5615 5619 5623 5625 5629 5631 5635 5638 5643 5646 5652 5655 5658 5663 5671 5674 5675 5678 5683 5687 5690 5693 5696 5698 5700 5703 5710 5712
5633 5629 5624 5620 5616 5613 5608 5604 5601 5597 5594 5592 5593 5595 5595 5598 5601 5604 5607 5612 5615 5620 5622 5627 5630 5635 5639 5643 5649 5657 5661 5664 5667 5670 5672 5677 5679 5682 5684 5690 5694 5698 5702
5614 5611 5607 5603 5597 5591 5588 5584 5580 5575 5571 5571 5571 5574 5576 5579 5583 5586 5589 5595 5599 5604 5608 5613 5617 5622 5627 5632 5636 5641 5647 5651 5653 5656 5662 5666 5670 5673 5677 5680 5685 5687 5688
5599 5595 5591 5584 5577 5572 5567 5562 5555 5550 5548 5548 5550 5553 5558 5561 5566 5570 5573 5579 5585 5590 5594 5599 5605 5611 5616 5621 5624 5628 5634 5639 5642 5646 5650 5653 5657 5662 5664 5669 5673 5675 5676
5582 5576 5570 5565 5559 5554 5547 5541 5534 5528 5526 5527 5529 5533 5539 5546 5550 5555 5559 5564 5571 5577 5582 5585 5592 5597 5604 5608 5614 5619 5624 5629 5633 5639 5643 5646 5650 5652 5655 5658 5661 5663 5666
5566 5558 5551 5543 5537 5532 5527 5521 5513 5508 5507 5509 5511 5516 5522 5530 5536 5542 5547 5552 5558 5566 5570 5575 5582 5587 5592 5597 5605 5612 5619 5623 5628 5633 5636 5639 5643 5644 5644 5646 5649 5651 5656
5547 5539 5532 5526 5520 5515 5510 5505 5498 5494 5492 5493 5497 5505 5510 5516 5522 5530 5537 5542 5547 5554 5560 5567 5574 5579 5584 5592 5599 5606 5612 5615 5620 5625 5628 5631 5634 5636 5639 5640 5642 5646 5648
5530 5521 5514 5509 5504 5499 5496 5493 5489 5485 5484 5485 5490 5495 5500 5505 5511 5518 5525 5532 5537 5542 5548 5559 5566 5571 5576 5585 5592 5598 5603 5607 5610 5616 5622 5625 5626 5629 5632 5635 5639 5640 5640
5520 5513 5506 5500 5494 5488 5484 5482 5481 5479 5478 5479 5482 5487 5492 5497 5502 5507 5513 5520 5527 5535 5541 5546 5557 5563 5569 5577 5584 5590 5595 5601 5605 5608 5616 5620 5624 5627 5628 5631 5633 5633 5635
5511 5505 5498 5492 5486 5480 5474 5472 5471 5470 5471 5472 5475 5479 5483 5488 5492 5496 5502 5510 5517 5525 5534 5541 5548 5557 5564 5571 5577 5582 5588 5595 5600 5605 5611 5616 5619 5621 5622 5624 5625 5627 5629
5499 5494 5488 5482 5475 5469 5465 5460 5459 5459 5461 5462 5466 5471 5475 5479 5484 5487 5492 5499 5507 5516 5523 5533 5541 5549 5558 5565 5571 5577 5585 5590 5593 5601 5605 5611 5614 5617 5619 5620 5619 5623 5625
5491 5483 5475 5468 5464 5457 5451 5448 5447 5447 5449 5452 5456 5460 5465 5470 5475 5479 5484 5491 5499 5506 5514 5523 5532 5542 5551 5559 5565 5573 5576 5585 5587 5595 5601 5606 5610 5612 5613 5615 5616 5618 5621
5480 5471 5464 5455 5446 5441 5438 5436 5435 5435 5436 5439 5444 5449 5454 5459 5464 5471 5477 5484 5493 5499 5509 5518 5526 5535 5543 5552 5558 5564 5570 5578 5581 5586 5595 5600 5606 5608 5609 5611 5612 5614 5616
5470 5462 5452 5441 5432 5427 5425 5424 5423 5423 5424 5427 5431 5436 5442 5449 5454 5460 5469 5477 5486 5494 5503 5510 5520 5529 5537 5544 5551 5555 5564 5572 5576 5581 5589 5595 5601 5604 5606 5607 5608 5609 5610
5462 5452 5441 5432 5425 5420 5417 5413 5410 5408 5408 5413 5418 5422 5429 5436 5442 5450 5458 5467 5477 5487 5495 5506 5515 5524 5532 5539 5544 5550 5559 5566 5570 5577 5583 5590 5596 5599 5601 5603 5603 5605 5608
5456 5445 5435 5426 5419 5412 5406 5401 5398 5398 5398 5400 5404 5411 5417 5425 5432 5439 5446 5456 5468 5481 5491 5501 5509 5516 5525 5532 5540 5547 5555 5561 5566 5572 5578 5586 5590 5593 5595 5597 5599 5601 5603
5453 5442 5432 5422 5414 5405 5397 5391 5388 5385 5384 5387 5393 5400 5408 5415 5423 5432 5441 5453 5463 5473 5483 5494 5503 5511 5518 5526 5534 5541 5549 5556 5561 5569 5574 5580 5584 5588 5590 5592 5593 5594 5596
5452 5440 5428 5419 5411 5401 5392 5385 5377 5372 5372 5374 5381 5390 5398 5408 5417 5425 5435 5445 5455 5463 5473 5482 5493 5502 5511 5519 5529 5537 5544 5551 5558 5564 5569 5574 5579 5583 5584 5586 5589 5589 5588
5452 5440 5428 5420 5411 5400 5391 5382 5373 5367 5366 5368 5376 5385 5395 5404 5412 5420 5429 5439 5448 5455 5463 5472 5483 5494 5503 5512 5522 5530 5538 5547 5554 5560 5565 5570 5574 5575 5579 5583 5583 5584 5583
5454 5443 5431 5422 5413 5403 5393 5385 5377 5370 5367 5369 5376 5386 5395 5403 5410 5419 5428 5435 5442 5449 5455 5464 5475 5486 5496 5506 5515 5525 5534 5542 5549 5555 5561 5564 5566 5570 5577 5577 5578 5578 5580
5458 5448 5438 5429 5419 5409 5400 5391 5386 5380 5376 5377 5384 5392 5398 5403 5411 5419 5426 5432 5438 5445 5453 5461 5472 5481 5491 5500 5510 5520 5530 5538 5545 5551 5555 5558 5561 5569 5572 5572 5571 5574 5579
5463 5454 5445 5436 5427 5417 5408 5402 5396 5393 5391 5391 5394 5397 5401 5406 5412 5420 5427 5433 5438 5443 5451 5460 5468 5477 5486 5495 5505 5514 5525 5534 5541 5544 5550 5556 5560 5564 5566 5565 5569 5575 5581
5470 5461 5453 5445 5436 5427 5418 5412 5407 5403 5401 5399 5400 5401 5404 5408 5413 5420 5428 5434 5440 5445 5450 5458 5468 5475 5484 5492 5499 5508 5517 5527 5537 5544 5549 5553 5558 5560 5560 5564 5570 5576 5581
Wind_Speed
63 67 67 67 66 64 63 63 67 70 72 73 71 70 70 71 72 72 72 71 69 67 66 64 59 55 51 48 50 54 46 43 43 42 42 36 39 35 36 36 27 27 22
67 70 70 69 69 69 65 64 64 63 67 69 72 73 71 71 70 70 72 69 70 68 65 62 57 53 50 48 47 43 42 38 34 42 38 37 41 38 41 38 31 29 28
69 70 69 66 66 67 66 67 67 67 66 68 69 70 69 67 68 67 68 69 64 65 62 59 55 51 48 47 45 38 42 40 33 39 39 44 44 42 42 39 33 27 24
70 68 65 63 63 63 64 64 66 67 68 65 67 69 71 69 64 63 63 62 62 58 58 56 52 50 51 49 45 38 40 37 35 39 46 44 41 37 36 34 32 26 29
64 63 62 58 57 55 57 61 65 67 70 68 64 64 67 66 64 59 58 59 56 54 54 50 54 46 48 46 47 42 41 41 44 45 49 49 38 37 37 43 41 37 35
60 56 51 52 57 60 62 63 64 68 64 67 70 64 63 63 59 57 54 50 51 49 51 48 40 41 46 46 44 43 43 39 41 35 33 43 42 41 46 49 41 42 42
49 51 56 59 57 61 63 63 66 63 58 56 63 64 58 57 51 48 50 47 45 43 44 48 46 42 40 40 34 33 34 35 36 34 36 40 43 49 51 47 41 40 43
55 59 61 62 61 62 62 61 62 60 57 49 54 59 56 51 50 45 45 44 42 40 36 36 35 37 33 35 35 33 33 37 37 39 37 38 39 37 39 39 36 38 44
57 62 63 63 62 64 60 56 53 49 47 50 49 51 49 47 48 45 42 39 37 36 36 35 35 37 33 29 32 31 31 26 28 31 32 31 32 33 30 28 28 29 34
58 58 59 58 56 53 50 45 39 39 41 44 43 41 40 44 44 47 41 37 34 36 35 33 31 35 36 33 31 28 24 23 19 18 23 27 27 25 25 25 26 29 28
40 43 42 41 43 42 39 35 30 28 28 32 32 33 35 37 39 43 42 38 37 36 31 43 32 29 25 31 29 25 26 23 18 17 22 23 22 23 26 24 25 26 27
31 29 26 25 27 32 33 31 31 29 27 29 30 30 30 31 34 39 41 39 38 30 27 36 38 22 20 23 32 30 30 26 21 17 20 21 24 25 27 23 23 23 24
29 30 29 28 30 30 31 32 31 31 28 30 29 27 27 29 32 37 40 41 38 33 48 39 29 30 27 27 28 33 33 27 21 18 16 16 18 20 22 21 19 20 20
40 32 32 38 33 33 32 30 30 30 30 30 30 30 30 31 31 33 35 41 37 42 40 53 37 29 35 31 30 36 33 32 28 23 22 20 17 18 20 20 19 20 20
35 37 35 33 39 39 36 30 28 30 31 33 34 35 35 35 35 32 34 39 38 44 40 44 42 38 38 34 37 36 34 31 28 26 23 20 17 16 15 15 19 20 21
37 36 42 46 44 31 28 30 29 28 33 34 37 37 38 41 40 37 33 39 41 46 43 40 40 42 36 34 38 41 36 33 26 23 22 19 19 14 17 14 16 21 22
34 39 48 39 31 25 23 25 22 30 34 33 33 33 40 44 44 41 38 38 43 46 44 43 43 40 36 36 38 38 40 36 30 25 21 19 21 17 21 16 15 20 23
38 42 39 31 27 24 21 24 26 26 28 38 35 34 32 39 42 42 43 42 45 50 49 48 45 41 37 37 40 39 40 36 29 25 21 20 24 23 23 20 19 21 24
40 37 32 26 26 26 25 24 24 24 26 30 29 34 39 34 40 42 42 43 44 50 50 50 45 40 38 37 38 38 35 33 30 26 24 22 25 25 24 23 22 22 25
38 35 30 27 32 29 21 19 23 26 27 31 36 32 35 36 35 42 37 38 39 43 50 47 46 43 37 37 37 38 38 35 31 29 26 27 26 25 25 24 24 24 24
36 38 32 25 34 29 23 21 20 16 17 24 34 33 35 40 34 35 41 34 37 39 45 49 50 47 42 40 40 42 40 36 34 30 27 28 27 31 30 28 24 27 22
38 39 33 27 33 30 25 25 21 9 8 15 26 30 32 31 32 34 35 35 36 39 43 47 47 45 48 43 40 40 43 40 37 33 26 30 31 35 31 24 26 21 27
39 38 36 32 34 30 27 26 25 11 6 11 23 29 27 25 26 30 31 30 34 42 43 46 47 45 45 45 42 43 41 40 36 35 33 34 36 37 26 23 26 25 23
38 38 35 38 39 34 32 25 24 21 15 18 20 24 23 23 32 34 26 26 32 36 45 40 44 44 47 46 44 44 43 39 34 34 36 36 34 30 26 29 22 27 32
35 35 37 36 36 34 32 31 23 24 18 18 17 15 16 19 22 32 34 28 25 28 36 42 38 39 40 41 45 45 48 42 40 40 35 31 32 30 31 23 31 35 29
32 35 35 37 38 39 33 30 29 26 21 17 15 14 13 17 22 30 32 30 24 18 22 34 33 35 35 34 39 44 52 49 41 35 34 34 32 32 25 32 23 34 31
Wind_Direction
271 275 277 281 279 276 274 271 269 270 272 272 267 264 263 263 263 264 265 268 269 269 270 271 271 270 271 271 269 275 279 285 262 220 231 232 240 248 256 259 265 260 274
274 278 277 278 280 280 278 275 272 267 265 265 267 266 262 261 261 262 263 264 265 266 267 267 269 270 270 269 269 272 270 272 244 224 229 240 244 248 255 257 259 267 263
275 280 283 283 282 281 280 278 275 272 269 265 262 263 263 260 258 258 259 260 262 262 263 262 263 264 267 265 267 264 269 272 259 243 243 248 249 251 253 254 257 254 250
280 281 280 280 280 279 279 278 278 277 274 267 264 261 261 261 259 258 257 258 258 260 259 259 261 260 261 264 261 256 256 255 242 249 244 245 248 249 253 270 261 232 219
277 279 280 280 282 282 283 282 280 277 274 272 267 260 258 258 259 257 255 254 254 253 255 257 258 256 255 256 257 250 250 251 246 244 240 245 258 261 273 267 258 254 245
278 279 283 283 283 283 284 281 282 276 272 269 264 261 258 256 255 255 255 253 253 253 250 248 249 243 250 250 255 256 255 245 238 238 257 247 256 259 255 259 249 252 256
283 281 281 282 283 286 285 287 288 278 269 267 265 258 255 255 254 254 253 251 249 248 249 246 246 247 246 246 239 225 223 225 227 234 232 230 235 241 245 250 253 249 249
284 283 281 285 287 290 289 287 284 283 265 266 261 256 250 251 247 246 249 248 247 247 242 239 225 230 225 213 215 224 223 231 235 234 233 235 239 242 243 248 249 244 243
288 287 287 288 290 290 289 293 289 275 266 264 255 250 247 243 243 240 243 247 247 240 244 212 211 206 212 215 214 219 226 227 221 227 227 233 246 245 249 252 247 246 247
292 288 285 285 284 286 286 291 286 283 270 260 249 248 245 240 238 236 241 245 240 244 240 216 217 217 216 201 204 213 218 202 219 236 237 240 239 240 242 244 243 238 239
308 305 296 287 286 283 286 283 281 280 266 253 247 245 241 239 234 235 239 239 241 253 240 227 208 191 192 197 208 208 213 211 218 233 244 239 235 235 236 236 238 236 236
314 319 312 305 308 296 287 275 274 275 267 252 248 245 240 231 227 232 234 232 235 241 202 218 193 204 204 211 203 207 208 216 210 214 230 229 227 223 227 228 231 234 237
303 306 306 310 307 314 296 282 270 265 262 251 245 234 231 227 224 229 233 228 231 222 197 204 203 210 214 211 203 208 217 202 198 202 221 225 224 230 231 228 232 237 237
293 293 303 303 302 301 293 278 269 261 255 245 244 236 231 227 225 233 232 223 226 215 202 208 203 208 207 203 205 205 209 197 186 200 215 230 226 230 236 232 231 233 237
309 312 300 305 310 308 290 273 264 258 251 246 241 237 233 227 225 229 227 217 217 210 201 201 200 205 207 207 197 201 202 204 189 197 214 221 232 236 247 241 238 238 238
309 318 325 312 308 300 280 271 265 251 252 244 237 237 233 227 228 230 225 218 210 208 205 209 203 204 208 208 204 204 209 208 199 202 217 219 218 235 255 252 245 238 239
314 322 320 320 310 299 272 264 270 264 246 243 239 235 228 230 228 228 219 218 211 202 205 203 202 203 204 207 206 206 205 208 204 207 212 216 214 232 249 259 247 240 241
324 329 334 330 320 310 292 279 267 270 248 236 241 237 231 220 226 223 220 214 210 206 206 206 203 206 205 205 207 199 204 206 200 206 216 221 217 232 241 250 261 247 240
348 341 338 338 335 322 308 293 274 265 257 243 234 231 213 217 217 218 214 214 209 206 205 206 205 204 206 206 206 202 206 207 208 210 215 222 219 227 244 250 258 248 238
351 350 346 348 349 343 330 310 284 274 259 241 222 211 220 213 209 208 210 212 210 208 208 203 204 208 209 206 204 206 204 207 208 211 217 226 223 227 243 251 256 262 252
356 359 356 354 355 354 349 343 322 285 258 234 218 217 211 208 209 206 206 208 202 205 206 208 207 210 209 211 204 203 203 203 204 206 209 225 227 231 244 252 269 274 258
6 6 5 8 12 10 4 2 355 324 259 216 200 195 191 197 202 202 201 202 199 199 203 205 205 206 202 203 202 197 195 197 202 206 205 226 228 233 242 260 271 258 249
14 15 20 16 9 19 20 21 20 32 88 165 176 178 178 188 188 186 189 197 199 201 204 202 203 203 202 203 204 200 195 197 202 202 213 229 231 232 243 264 267 255 188
18 20 23 28 27 29 31 37 37 50 83 127 146 164 181 182 181 176 176 185 194 198 200 203 202 202 203 202 201 205 199 199 200 208 221 229 233 227 244 265 253 160 153
21 23 27 31 31 33 38 42 53 57 77 112 134 152 161 163 172 181 181 186 191 196 198 197 197 201 202 202 204 203 204 201 202 212 220 226 221 233 250 248 160 157 152
35 32 32 35 38 43 45 49 53 57 63 83 113 126 155 171 166 166 178 191 193 192 194 188 186 193 194 189 188 192 197 199 204 212 215 215 225 239 251 176 163 171 169